Regional Weather Roundup
Issued by NWS

Home | Current Version | Previous Version | Graphics & Text | Print | Product List | Glossary Off
Versions: 1 2 3 4 5 6 7 8 9 10 11 12 13 14 15 16 17 18 19 20 21 22 23 24 25 26 27 28 29 30 31 32 33 34 35 36 37 38 39 40 41 42 43 44 45 46 47 48 49 50

000
ASUS43 KFSD 280702
RWRSD

WEATHER ROUNDUP FOR SOUTH DAKOTA
NATIONAL WEATHER SERVICE SIOUX FALLS SD
200 AM CDT FRI AUG 28 2015

NOTE: "FAIR" INDICATES FEW OR NO CLOUDS BELOW 12,000 FEET WITH NO
SIGNIFICANT WEATHER AND/OR OBSTRUCTIONS TO VISIBILITY.


SDZ001>005-009-010-012>017-280800-
NORTHWEST AND NORTH CENTRAL SOUTH DAKOTA

CITY           SKY/WX    TMP DP  RH WIND       PRES   REMARKS
BUFFALO          N/A     62  55  77 S7        29.92S
FAITH            N/A     63  60  90 SW7       29.96F
MOBRIDGE       PTCLDY    60  60 100 CALM      29.92S
$$

SDZ012>016-024>037-041>051-057-063-072>074-280800-
SOUTHWEST AND SOUTH CENTRAL SOUTH DAKOTA

CITY           SKY/WX    TMP DP  RH WIND       PRES   REMARKS
RAPID CTY ARPT CLEAR     61  58  90 SW7       30.00F
PIERRE         CLOUDY    68  67  96 N6        29.91S FOG
CUSTER         CLEAR     61  49  64 CALM      30.14S
ELLSWORTH AFB  CLEAR     63  60  89 SW6       29.99S
PHILIP         PTCLDY    60  59  96 SW3       29.95S FOG
PINE RIDGE     CLEAR     52  50  93 CALM      30.02F
WINNER         CLOUDY    71  68  90 NE3       29.90S FOG
$$

SDZ004>011-016>023-039-040-280800-
NORTHEAST SOUTH DAKOTA

CITY           SKY/WX    TMP DP  RH WIND       PRES   REMARKS
ABERDEEN       FOG       60  59  96 S6        29.93R VSB 1/2
WATERTOWN      MOCLDY    66  62  87 S9        29.94F
BROOKINGS      CLOUDY    66  61  82 SE12      29.97F
$$

SDZ017-020-022-023-036>040-048>070-280800-
SOUTHEAST SOUTH DAKOTA

CITY           SKY/WX    TMP DP  RH WIND       PRES   REMARKS
SIOUX FALLS    CLOUDY    66  64  93 SE12      29.94S
HURON          CLOUDY    66  64  93 E5        29.91F
CHAMBERLAIN    RAIN      65  65  99 SE7       29.91S
MITCHELL       CLOUDY    67  66  97 S8        29.91S
YANKTON        CLOUDY    64  63  94 E16       29.88F
$$

ABBREVIATIONS USED IN REMARKS
   TC - TEMPERATURE IN CELSIUS
  WCI - WIND CHILL INDEX
   HX - HEAT INDEX
  VSB - VISIBILITY



USA.gov is the U.S. government's official web portal to all federal, state and local government web resources and services.